Date String (YYYY-MM-DD hh:mm:ss) UTC,Instrument flags,Ambient pressure (hPa),Sample flow (lpm),Bypass flow (lpm),Sample temperature (°C),Ambient temperature (°C),ASC tube jacket temperature (°C),LED temperature (°C),Box temperature (°C),Sample RH (%),Span deviation,Mass concentration (μg/m³),Mass concentration (μg/m³),Mass concentration (μg/m³)
DateTimeUTC,F1_M11,P_M11,Q1_M11,Q2_M11,T1_M11,T2_M11,T3_M11,T4_M11,T5_M11,U1_M11,ZSPAN_M11,X0_M11,X2_M11,X1_M11
2023-04-30 04:00:00,,0831.3,5.01,0.00,29.1,27.6,00.0,37.5,30.5,14.2,0000.0,0011.06,0004.27,0002.43
2023-04-30 04:01:00,,0831.3,5.01,0.00,29.1,27.5,00.0,37.5,30.5,14.1,0000.0,0011.57,0004.28,0002.45
2023-04-30 04:02:00,,0831.3,5.00,0.00,29.0,27.5,00.0,37.5,30.5,14.1,0000.0,0011.72,0004.28,0002.45
2023-04-30 04:03:00,,0831.3,5.00,0.00,29.0,27.5,00.0,37.5,30.5,14.1,0000.0,0011.10,0004.25,0002.43
2023-04-30 04:04:00,,0831.3,5.01,0.00,29.0,27.5,00.0,37.5,30.5,14.0,0000.0,0011.20,0004.29,0002.42
2023-04-30 04:05:00,,0831.3,5.00,0.00,29.0,27.5,00.0,37.5,30.5,13.9,0000.0,0011.11,0004.28,0002.42
2023-04-30 04:06:00,,0831.3,5.00,0.00,29.0,27.4,00.0,37.5,30.5,14.0,0000.0,0011.09,0004.26,0002.41
2023-04-30 04:07:00,,0831.3,4.99,0.00,29.0,27.4,00.0,37.5,30.5,14.0,0000.0,0011.40,0004.23,0002.40
2023-04-30 04:08:00,,0831.3,4.99,0.00,29.0,27.4,00.0,37.5,30.5,14.1,0000.0,0011.30,0004.17,0002.41
2023-04-30 04:09:00,,0831.3,5.01,0.00,29.0,27.4,00.0,37.5,30.5,14.1,0000.0,0011.11,0004.16,0002.42
2023-04-30 04:10:00,,0831.3,5.00,0.00,29.0,27.4,00.0,37.5,30.5,14.5,0000.0,0011.13,0004.21,0002.45
2023-04-30 04:11:00,,0831.3,5.00,0.00,29.0,27.4,00.0,37.5,30.5,14.5,0000.0,0010.53,0004.21,0002.45
2023-04-30 04:12:00,,0831.3,5.00,0.00,29.0,27.4,00.0,37.5,30.5,14.5,0000.0,0010.10,0004.19,0002.44
2023-04-30 04:13:00,,0831.3,5.00,0.00,29.0,27.4,00.0,37.5,30.5,14.3,0000.0,0009.87,0004.17,0002.43
2023-04-30 04:14:00,,0831.3,5.00,0.00,29.0,27.4,00.0,37.5,30.5,14.8,0000.0,0010.29,0004.16,0002.44
2023-04-30 04:15:00,,0831.3,5.01,0.00,29.0,27.5,00.0,37.5,30.5,14.8,0000.0,0010.45,0004.09,0002.44
2023-04-30 04:16:00,,0831.3,4.99,0.00,29.0,27.5,00.0,37.5,30.5,14.3,0000.0,0010.55,0004.14,0002.43
2023-04-30 04:17:00,,0831.3,4.99,0.00,29.0,27.4,00.0,37.5,30.5,14.5,0000.0,0010.41,0004.11,0002.42
2023-04-30 04:18:00,,0831.3,5.02,0.00,29.0,27.5,00.0,37.5,30.5,14.2,0000.0,0010.22,0004.12,0002.41
2023-04-30 04:19:00,,0831.3,5.00,0.00,29.0,27.5,00.0,37.5,30.5,14.3,0000.0,0011.18,0004.20,0002.42
2023-04-30 04:20:00,,0831.3,5.00,0.00,29.0,27.5,00.0,37.5,30.6,14.4,0000.0,0012.33,0004.25,0002.43
2023-04-30 04:21:00,,0831.3,4.99,0.00,29.0,27.6,00.0,37.5,30.6,14.2,0000.0,0012.39,0004.26,0002.43
2023-04-30 04:22:00,,0831.3,5.00,0.00,29.1,27.6,00.0,37.5,30.7,14.1,0000.0,0012.39,0004.27,0002.43
2023-04-30 04:23:00,,0831.3,5.01,0.00,29.1,27.6,00.0,37.5,30.7,14.1,0000.0,0012.34,0004.28,0002.44
2023-04-30 04:24:00,,0831.3,5.01,0.00,29.1,27.7,00.0,37.5,30.7,14.1,0000.0,0012.33,0004.31,0002.45
2023-04-30 04:25:00,,0831.3,4.99,0.00,29.1,27.7,00.0,37.5,30.6,14.7,0000.0,0011.94,0004.34,0002.44
2023-04-30 04:26:00,,0831.3,5.00,0.00,29.1,27.7,00.0,37.5,30.7,14.7,0000.0,0011.87,0004.35,0002.44
2023-04-30 04:27:00,,0831.3,5.01,0.00,29.1,27.6,00.0,37.5,30.6,14.5,0000.0,0012.14,0004.31,0002.45
2023-04-30 04:28:00,,0831.3,5.01,0.00,29.1,27.5,00.0,37.5,30.6,14.5,0000.0,0012.22,0004.32,0002.46
2023-04-30 04:29:00,,0831.3,5.01,0.00,29.0,27.5,00.0,37.5,30.5,14.4,0000.0,0012.06,0004.31,0002.45
2023-04-30 04:30:00,,0831.3,5.01,0.00,29.0,27.5,00.0,37.5,30.5,14.3,0000.0,0011.10,0004.28,0002.44
2023-04-30 04:31:00,,0831.3,4.99,0.00,29.0,27.4,00.0,37.5,30.5,14.1,0000.0,0009.86,0004.17,0002.40
2023-04-30 04:32:00,,0831.4,4.99,0.00,29.0,27.4,00.0,37.5,30.5,14.3,0000.0,0009.63,0004.13,0002.38
2023-04-30 04:33:00,,0831.3,5.00,0.00,29.0,27.4,00.0,37.5,30.5,14.3,0000.0,0009.84,0004.11,0002.36
2023-04-30 04:34:00,,0831.3,5.01,0.00,29.0,27.4,00.0,37.5,30.5,14.2,0000.0,0010.22,0004.11,0002.36
2023-04-30 04:35:00,,0831.3,5.00,0.00,29.0,27.4,00.0,37.5,30.5,14.2,0000.0,0010.76,0004.07,0002.37
2023-04-30 04:36:00,,0831.3,4.99,0.00,29.0,27.4,00.0,37.5,30.5,14.1,0000.0,0011.15,0004.08,0002.39
2023-04-30 04:37:00,,0831.3,4.99,0.00,29.0,27.4,00.0,37.5,30.6,14.1,0000.0,0010.98,0004.05,0002.37
2023-04-30 04:38:00,,0831.3,5.00,0.00,29.0,27.5,00.0,37.5,30.6,14.2,0000.0,0010.54,0004.08,0002.38
2023-04-30 04:39:00,,0831.3,4.99,0.00,29.0,27.5,00.0,37.5,30.6,14.3,0000.0,0010.41,0004.07,0002.37
2023-04-30 04:40:00,,0831.3,5.01,0.00,29.0,27.5,00.0,37.5,30.6,14.3,0000.0,0010.80,0004.07,0002.40
2023-04-30 04:41:00,,0831.4,5.01,0.00,29.0,27.5,00.0,37.5,30.6,14.3,0000.0,0011.20,0004.06,0002.39
2023-04-30 04:42:00,,0831.4,4.99,0.00,29.0,27.5,00.0,37.5,30.5,14.3,0000.0,0011.41,0004.11,0002.39
2023-04-30 04:43:00,,0831.3,4.99,0.00,29.0,27.5,00.0,37.5,30.5,14.2,0000.0,0011.91,0004.09,0002.39
2023-04-30 04:44:00,,0831.4,5.01,0.00,29.0,27.5,00.0,37.5,30.5,14.2,0000.0,0012.29,0004.14,0002.41
2023-04-30 04:45:00,,0831.4,5.00,0.00,29.0,27.5,00.0,37.5,30.5,14.1,0000.0,0012.10,0004.14,0002.42
2023-04-30 04:46:00,,0831.4,4.99,0.00,29.0,27.5,00.0,37.5,30.5,14.1,0000.0,0011.66,0004.09,0002.39
2023-04-30 04:47:00,,0831.5,5.00,0.00,29.0,27.5,00.0,37.5,30.6,14.1,0000.0,0011.10,0004.04,0002.39
2023-04-30 04:48:00,,0831.4,4.99,0.00,29.1,27.6,00.0,37.5,30.6,14.1,0000.0,0011.40,0004.10,0002.43
2023-04-30 04:49:00,,0831.4,5.00,0.00,29.1,27.6,00.0,37.5,30.7,14.1,0000.0,0012.65,0004.10,0002.44
2023-04-30 04:50:00,,0831.4,5.00,0.00,29.1,27.7,00.0,37.5,30.7,14.1,0000.0,0012.91,0004.10,0002.44
2023-04-30 04:51:00,,0831.4,5.01,0.00,29.1,27.8,00.0,37.5,30.7,14.2,0000.0,0012.98,0004.12,0002.43
2023-04-30 04:52:00,,0831.5,5.00,0.00,29.2,27.8,00.0,37.5,30.7,14.2,0000.0,0012.31,0004.06,0002.43
2023-04-30 04:53:00,,0831.4,5.00,0.00,29.2,27.9,00.0,37.5,30.8,14.1,0000.0,0012.18,0004.02,0002.43
2023-04-30 04:54:00,,0831.4,4.99,0.00,29.2,27.9,00.0,37.5,30.8,14.1,0000.0,0011.72,0004.04,0002.43
2023-04-30 04:55:00,,0831.5,5.00,0.00,29.2,27.9,00.0,37.5,30.8,14.1,0000.0,0011.28,0004.05,0002.41
2023-04-30 04:56:00,,0831.5,5.00,0.00,29.2,28.0,00.0,37.5,30.8,14.1,0000.0,0012.03,0004.10,0002.44
2023-04-30 04:57:00,,0831.5,5.01,0.00,29.3,28.0,00.0,37.6,30.9,14.0,0000.0,0012.01,0004.19,0002.47
2023-04-30 04:58:00,,0831.4,5.01,0.00,29.3,28.0,00.0,37.6,30.9,14.0,0000.0,0012.16,0004.23,0002.47
2023-04-30 04:59:00,,0831.4,5.00,0.00,29.3,28.0,00.0,37.6,30.9,14.0,0000.0,0011.79,0004.17,0002.44
